TimeCDT,TemperatureF,Dew PointF,Humidity,Sea Level PressureIn,VisibilityMPH,Wind Direction,Wind SpeedMPH,Gust SpeedMPH,PrecipitationIn,Events,Conditions,WindDirDegrees,DateUTC
12:12 AM,26.6,23.0,86,30.25,10.0,WNW,4.6,-,N/A,,Clear,290,2013-04-02 05:12:00
12:32 AM,26.6,23.0,86,30.25,10.0,WNW,4.6,-,N/A,,Clear,290,2013-04-02 05:32:00
12:53 AM,26.6,24.8,93,30.24,10.0,NW,3.5,-,N/A,,Clear,310,2013-04-02 05:53:00
1:12 AM,26.6,24.8,93,30.25,10.0,WNW,4.6,-,N/A,,Clear,290,2013-04-02 06:12:00
1:32 AM,26.6,24.8,93,30.25,10.0,WNW,4.6,-,N/A,,Clear,290,2013-04-02 06:32:00
1:53 AM,26.6,23.0,86,30.25,10.0,NW,4.6,-,N/A,,Clear,310,2013-04-02 06:53:00
2:12 AM,26.6,23.0,86,30.25,10.0,WNW,4.6,-,N/A,,Clear,300,2013-04-02 07:12:00
2:32 AM,26.6,23.0,86,30.25,10.0,WNW,3.5,-,N/A,,Clear,300,2013-04-02 07:32:00
2:53 AM,26.6,23.0,86,30.25,10.0,WNW,4.6,-,N/A,,Clear,290,2013-04-02 07:53:00
3:12 AM,24.8,21.2,86,30.24,10.0,NW,3.5,-,N/A,,Clear,310,2013-04-02 08:12:00
3:32 AM,24.8,21.2,86,30.24,10.0,NW,4.6,-,N/A,,Clear,320,2013-04-02 08:32:00
3:53 AM,24.8,23.0,93,30.24,10.0,WNW,3.5,-,N/A,,Clear,300,2013-04-02 08:53:00
4:12 AM,24.8,21.2,86,30.24,10.0,Calm,Calm,-,N/A,,Clear,0,2013-04-02 09:12:00
4:32 AM,24.8,21.2,86,30.24,10.0,Calm,Calm,-,N/A,,Clear,0,2013-04-02 09:32:00
4:53 AM,24.8,21.2,86,30.24,10.0,Calm,Calm,-,N/A,,Clear,0,2013-04-02 09:53:00
5:12 AM,24.8,21.2,86,30.24,10.0,Calm,Calm,-,N/A,,Clear,0,2013-04-02 10:12:00
5:32 AM,23.0,21.2,93,30.25,10.0,Calm,Calm,-,N/A,,Clear,0,2013-04-02 10:32:00
5:53 AM,24.8,21.2,86,30.25,10.0,NW,3.5,-,N/A,,Clear,310,2013-04-02 10:53:00
6:12 AM,23.0,21.2,93,30.25,10.0,NW,4.6,-,N/A,,Clear,310,2013-04-02 11:12:00
6:32 AM,23.0,21.2,93,30.26,10.0,WNW,3.5,-,N/A,,Clear,300,2013-04-02 11:32:00
6:53 AM,23.0,21.2,93,30.26,10.0,NW,3.5,-,N/A,,Clear,320,2013-04-02 11:53:00
7:12 AM,23.0,21.2,93,30.27,10.0,NW,4.6,-,N/A,,Clear,310,2013-04-02 12:12:00
7:32 AM,24.8,21.2,86,30.28,10.0,NW,5.8,-,N/A,,Clear,310,2013-04-02 12:32:00
7:53 AM,24.8,21.2,86,30.28,10.0,NW,5.8,-,N/A,,Clear,310,2013-04-02 12:53:00
8:12 AM,24.8,21.2,86,30.29,10.0,NW,6.9,-,N/A,,Clear,310,2013-04-02 13:12:00
8:33 AM,26.6,21.2,80,30.30,10.0,NW,8.1,-,N/A,,Clear,320,2013-04-02 13:33:00
8:52 AM,26.6,21.2,80,30.30,10.0,NW,9.2,-,N/A,,Clear,320,2013-04-02 13:52:00
9:33 AM,28.4,21.2,74,30.30,10.0,NW,10.4,-,N/A,,Scattered Clouds,320,2013-04-02 14:33:00
9:52 AM,28.4,21.2,74,30.30,10.0,NW,10.4,-,N/A,,Scattered Clouds,310,2013-04-02 14:52:00
10:12 AM,28.4,19.4,69,30.30,10.0,NNW,11.5,18.4,N/A,,Scattered Clouds,330,2013-04-02 15:12:00
10:33 AM,28.4,21.2,74,30.30,10.0,NNW,9.2,17.3,N/A,,Scattered Clouds,330,2013-04-02 15:33:00
10:52 AM,28.4,21.2,74,30.30,10.0,NNW,11.5,-,N/A,,Scattered Clouds,330,2013-04-02 15:52:00
11:12 AM,30.2,21.2,69,30.30,10.0,NW,9.2,16.1,N/A,,Scattered Clouds,320,2013-04-02 16:12:00
11:33 AM,30.2,21.2,69,30.31,10.0,NW,9.2,-,N/A,,Scattered Clouds,320,2013-04-02 16:33:00
11:52 AM,30.2,21.2,69,30.30,10.0,NW,10.4,-,N/A,,Scattered Clouds,310,2013-04-02 16:52:00
12:12 PM,30.2,21.2,69,30.30,10.0,NNW,8.1,-,N/A,,Clear,330,2013-04-02 17:12:00
12:33 PM,32.0,21.2,64,30.30,10.0,WNW,9.2,-,N/A,,Scattered Clouds,290,2013-04-02 17:33:00
12:52 PM,33.8,23.0,65,30.30,10.0,NNW,10.4,-,N/A,,Scattered Clouds,330,2013-04-02 17:52:00
1:12 PM,33.8,21.2,60,30.30,10.0,NNW,10.4,18.4,N/A,,Scattered Clouds,340,2013-04-02 18:12:00
1:33 PM,33.8,21.2,60,30.30,10.0,NW,10.4,-,N/A,,Scattered Clouds,320,2013-04-02 18:33:00
1:52 PM,35.6,21.2,56,30.29,10.0,NNW,10.4,19.6,N/A,,Scattered Clouds,340,2013-04-02 18:52:00
2:12 PM,35.6,21.2,56,30.29,10.0,NW,8.1,19.6,N/A,,Clear,320,2013-04-02 19:12:00
2:33 PM,35.6,21.2,56,30.29,10.0,NW,6.9,17.3,N/A,,Clear,310,2013-04-02 19:33:00
2:52 PM,35.6,21.2,56,30.29,10.0,NNW,12.7,18.4,N/A,,Clear,330,2013-04-02 19:52:00
3:12 PM,35.6,19.4,52,30.29,10.0,NNW,11.5,20.7,N/A,,Clear,330,2013-04-02 20:12:00
3:33 PM,37.4,21.2,52,30.28,10.0,NW,6.9,-,N/A,,Scattered Clouds,310,2013-04-02 20:33:00
3:52 PM,37.4,19.4,48,30.28,10.0,NNW,8.1,16.1,N/A,,Clear,330,2013-04-02 20:52:00
4:12 PM,37.4,19.4,48,30.28,10.0,NW,11.5,18.4,N/A,,Clear,320,2013-04-02 21:12:00
4:33 PM,37.4,19.4,48,30.28,10.0,NNW,6.9,-,N/A,,Clear,330,2013-04-02 21:33:00
4:47 PM,37.4,19.4,48,30.28,10.0,NW,8.1,11.5,N/A,,Clear,310,2013-04-02 21:47:00
5:19 PM,37.4,19.4,48,30.29,10.0,NW,9.2,-,N/A,,Clear,320,2013-04-02 22:19:00
5:32 PM,37.4,19.4,48,30.29,10.0,North,8.1,-,N/A,,Clear,350,2013-04-02 22:32:00
5:53 PM,37.4,19.4,48,30.29,10.0,North,6.9,-,N/A,,Clear,350,2013-04-02 22:53:00
6:12 PM,35.6,19.4,52,30.30,10.0,North,9.2,-,N/A,,Clear,360,2013-04-02 23:12:00
6:32 PM,35.6,17.6,48,30.30,10.0,North,6.9,-,N/A,,Clear,360,2013-04-02 23:32:00
6:52 PM,35.6,19.4,52,30.30,10.0,NNW,8.1,-,N/A,,Clear,340,2013-04-02 23:52:00
7:12 PM,35.6,21.2,56,30.30,10.0,North,6.9,-,N/A,,Clear,360,2013-04-03 00:12:00
7:33 PM,33.8,21.2,60,30.30,10.0,North,5.8,-,N/A,,Clear,10,2013-04-03 00:33:00
7:52 PM,33.8,21.2,60,30.30,10.0,NNW,3.5,-,N/A,,Clear,340,2013-04-03 00:52:00
8:12 PM,32.0,24.8,75,30.30,10.0,North,3.5,-,N/A,,Clear,10,2013-04-03 01:12:00
8:33 PM,30.2,23.0,75,30.31,10.0,North,3.5,-,N/A,,Clear,360,2013-04-03 01:33:00
8:53 PM,30.2,24.8,80,30.31,10.0,Calm,Calm,-,N/A,,Clear,0,2013-04-03 01:53:00
9:12 PM,30.2,24.8,80,30.32,10.0,Calm,Calm,-,N/A,,Clear,0,2013-04-03 02:12:00
9:32 PM,30.2,24.8,80,30.32,10.0,Calm,Calm,-,N/A,,Clear,0,2013-04-03 02:32:00
9:53 PM,30.2,26.6,86,30.32,10.0,Calm,Calm,-,N/A,,Clear,0,2013-04-03 02:53:00
10:12 PM,28.4,24.8,86,30.32,10.0,Calm,Calm,-,N/A,,Clear,0,2013-04-03 03:12:00
10:32 PM,28.4,24.8,86,30.33,10.0,Calm,Calm,-,N/A,,Clear,0,2013-04-03 03:32:00
10:53 PM,28.4,26.6,93,30.33,10.0,Calm,Calm,-,N/A,,Clear,0,2013-04-03 03:53:00
11:12 PM,28.4,24.8,86,30.33,10.0,Calm,Calm,-,N/A,,Clear,0,2013-04-03 04:12:00
11:32 PM,28.4,26.6,93,30.33,10.0,Calm,Calm,-,N/A,,Clear,0,2013-04-03 04:32:00
11:52 PM,26.6,24.8,93,30.33,10.0,Calm,Calm,-,N/A,,Clear,0,2013-04-03 04:52:00